When you browse on this site, cookies collect data to enhance your experience and personalize the content and advertising you see.
Visit our Privacy Policy to learn more. By continuing to use the site, you agree to this use of cookies and data.
  • In Latvia
  • List of Countries
  • For 7 days
  • Water Temperature
  • Satellite Maps
  • Weather Map
  • Weather Widgets
  • user-avatar
    Login

    Hourly Weather Giumri

    Today, 18 February, Monday

    Time Temperature Precipitation Wind Pressure Humidity
    00:00 -9°C° 0 mm 2 mps 631 mmHg 77%
    01:00 -9°C° 0 mm 2 mps 630 mmHg 76%
    02:00 -9°C° 0 mm 2 mps 630 mmHg 76%
    03:00 -8°C° 0 mm 1 mps 630 mmHg 76%
    04:00 -8°C° 0 mm 1 mps 630 mmHg 76%
    05:00 -8°C° 0 mm 1 mps 630 mmHg 76%
    06:00 -8°C° 0 mm 1 mps 629 mmHg 77%
    07:00 -8°C° 0 mm 2 mps 629 mmHg 76%
    08:00 -7°C° 0 mm 2 mps 629 mmHg 76%
    09:00 -6°C° 0 mm 2 mps 629 mmHg 75%
    10:00 -4°C° 0 mm 2 mps 629 mmHg 74%
    11:00 -4°C° 0 mm 3 mps 629 mmHg 73%
    12:00 -2°C° 0 mm 3 mps 629 mmHg 72%
    13:00 -1°C° 0 mm 3 mps 628 mmHg 72%
    14:00 -2°C° 0 mm 4 mps 628 mmHg 72%
    15:00 -1°C° 0 mm 4 mps 628 mmHg 72%
    16:00 -1°C° 0 mm 3 mps 628 mmHg 75%
    17:00 -2°C° 0 mm 3 mps 627 mmHg 77%
    18:00 -4°C° 0 mm 3 mps 627 mmHg 79%
    19:00 -5°C° 0 mm 3 mps 627 mmHg 79%
    20:00 -5°C° 0 mm 2 mps 627 mmHg 80%
    21:00 -6°C° 0 mm 2 mps 627 mmHg 80%
    22:00 -6°C° 0 mm 2 mps 627 mmHg 79%
    23:00 -7°C° 0 mm 2 mps 627 mmHg 79%

    Tomorrow, 19 February, Tuesday

    Time Temperature Precipitation Wind Pressure Humidity
    00:00 -7°C° 0 mm 2 mps 627 mmHg 79%
    01:00 -7°C° 0 mm 2 mps 627 mmHg 79%
    02:00 -7°C° 0 mm 2 mps 627 mmHg 79%
    03:00 -7°C° 0 mm 2 mps 627 mmHg 79%
    04:00 -7°C° 0 mm 2 mps 627 mmHg 79%
    05:00 -7°C° 0 mm 2 mps 627 mmHg 79%
    06:00 -7°C° 0 mm 2 mps 628 mmHg 79%
    07:00 -6°C° 0 mm 2 mps 628 mmHg 77%
    08:00 -6°C° 0 mm 2 mps 629 mmHg 76%
    09:00 -5°C° 0 mm 2 mps 630 mmHg 74%
    10:00 -5°C° 0 mm 3 mps 630 mmHg 70%
    11:00 -5°C° 0 mm 3 mps 630 mmHg 66%
    12:00 -4°C° 0 mm 3 mps 631 mmHg 63%
    13:00 -4°C° 0 mm 3 mps 631 mmHg 63%
    14:00 -4°C° 0 mm 3 mps 631 mmHg 63%
    15:00 -4°C° 0 mm 3 mps 631 mmHg 63%
    16:00 -5°C° 0 mm 2 mps 631 mmHg 65%
    17:00 -6°C° 0 mm 2 mps 631 mmHg 67%
    18:00 -8°C° 0 mm 2 mps 631 mmHg 69%
    19:00 -8°C° 0 mm 2 mps 632 mmHg 68%
    20:00 -9°C° 0 mm 2 mps 632 mmHg 67%
    21:00 -9°C° 0 mm 2 mps 633 mmHg 67%
    22:00 -9°C° 0 mm 2 mps 633 mmHg 65%
    23:00 -9°C° 0 mm 2 mps 633 mmHg 63%

    Day after tomorrow, 20 February, Wednesday

    Time Temperature Precipitation Wind Pressure Humidity
    00:00 -9°C° 0 mm 2 mps 633 mmHg 61%
    01:00 -8°C° 0 mm 1 mps 633 mmHg 60%
    02:00 -8°C° 0 mm 1 mps 633 mmHg 58%
    03:00 -9°C° 0 mm 1 mps 633 mmHg 57%
    04:00 -9°C° 0 mm 1 mps 633 mmHg 55%
    05:00 -9°C° 0 mm 1 mps 633 mmHg 54%
    06:00 -9°C° 0 mm 1 mps 633 mmHg 53%
    07:00 -8°C° 0 mm 1 mps 634 mmHg 52%
    08:00 -7°C° 0 mm 1 mps 634 mmHg 52%
    09:00 -4°C° 0 mm 1 mps 635 mmHg 52%
    10:00 -3°C° 0 mm 1 mps 635 mmHg 51%
    11:00 -1°C° 0 mm 1 mps 635 mmHg 51%
    12:00 0°C° 0 mm 1 mps 635 mmHg 51%
    13:00 +1°C° 0 mm 1 mps 635 mmHg 52%
    14:00 +1°C° 0 mm 1 mps 634 mmHg 52%
    15:00 +1°C° 0 mm 1 mps 634 mmHg 53%
    16:00 -1°C° 0 mm 1 mps 634 mmHg 52%
    17:00 -3°C° 0 mm 1 mps 633 mmHg 52%
    18:00 -4°C° 0 mm 1 mps 633 mmHg 51%
    19:00 -6°C° 0 mm 1 mps 633 mmHg 50%
    20:00 -6°C° 0 mm 1 mps 634 mmHg 49%
    21:00 -7°C° 0 mm 1 mps 634 mmHg 48%
    22:00 -7°C° 0 mm 1 mps 634 mmHg 48%
    23:00 -7°C° 0 mm 1 mps 634 mmHg 48%

    21 February, Thursday

    Time Temperature Precipitation Wind Pressure Humidity
    00:00 -8°C° 0 mm 1 mps 634 mmHg 48%
    01:00 -8°C° 0 mm 1 mps 633 mmHg 50%
    02:00 -8°C° 0 mm 1 mps 633 mmHg 51%
    03:00 -8°C° 0 mm 1 mps 633 mmHg 52%
    04:00 -8°C° 0 mm 1 mps 633 mmHg 53%
    05:00 -8°C° 0 mm 1 mps 633 mmHg 54%
    06:00 -9°C° 0 mm 1 mps 632 mmHg 55%
    07:00 -8°C° 0 mm 1 mps 633 mmHg 56%
    08:00 -7°C° 0 mm 1 mps 633 mmHg 57%
    09:00 -6°C° 0 mm 1 mps 633 mmHg 58%
    10:00 -3°C° 0 mm 1 mps 633 mmHg 56%
    11:00 -2°C° 0 mm 1 mps 633 mmHg 54%
    12:00 0°C° 0 mm 1 mps 633 mmHg 53%
    13:00 0°C° 0 mm 1 mps 633 mmHg 54%
    14:00 0°C° 0 mm 1 mps 632 mmHg 55%
    15:00 0°C° 0 mm 1 mps 632 mmHg 56%
    16:00 -1°C° 0 mm 1 mps 632 mmHg 57%
    17:00 -3°C° 0 mm 1 mps 632 mmHg 59%
    18:00 -4°C° 0 mm 1 mps 631 mmHg 60%
    19:00 -6°C° 0 mm 1 mps 632 mmHg 62%
    20:00 -6°C° 0 mm 1 mps 632 mmHg 64%
    21:00 -6°C° 0 mm 1 mps 633 mmHg 65%
    22:00 -6°C° 0 mm 1 mps 633 mmHg 69%
    23:00 -7°C° 0 mm 1 mps 633 mmHg 72%

    22 February, Friday

    Time Temperature Precipitation Wind Pressure Humidity
    00:00 -7°C° 0 mm 1 mps 633 mmHg 76%
    01:00 -7°C° 0 mm 1 mps 633 mmHg 77%
    02:00 -7°C° 0 mm 1 mps 632 mmHg 78%
    03:00 -8°C° 0 mm 1 mps 632 mmHg 79%
    04:00 -8°C° 0 mm 1 mps 632 mmHg 79%
    05:00 -8°C° 0 mm 1 mps 632 mmHg 79%
    06:00 -8°C° 0 mm 1 mps 632 mmHg 79%
    07:00 -7°C° 0 mm 1 mps 632 mmHg 78%
    08:00 -6°C° 0 mm 1 mps 633 mmHg 77%
    09:00 -4°C° 0 mm 1 mps 633 mmHg 76%
    10:00 -3°C° 0 mm 1 mps 633 mmHg 74%
    11:00 -2°C° 0 mm 1 mps 633 mmHg 72%
    12:00 -3°C° 0 mm 2 mps 632 mmHg 70%
    13:00 -2°C° 0 mm 2 mps 632 mmHg 71%
    14:00 -2°C° 0 mm 2 mps 632 mmHg 72%
    15:00 -2°C° 0 mm 2 mps 631 mmHg 73%
    16:00 -1°C° 0 mm 1 mps 631 mmHg 75%
    17:00 -3°C° 0 mm 1 mps 631 mmHg 77%
    18:00 -4°C° 0 mm 1 mps 631 mmHg 79%
    19:00 -4°C° 0 mm 1 mps 631 mmHg 79%
    20:00 -4°C° 0 mm 1 mps 631 mmHg 79%
    21:00 -4°C° 0 mm 1 mps 631 mmHg 80%
    22:00 -6°C° 0 mm 1 mps 631 mmHg 80%
    23:00 -6°C° 0 mm 1 mps 631 mmHg 81%

    23 February, Saturday

    Time Temperature Precipitation Wind Pressure Humidity
    00:00 -6°C° 0 mm 1 mps 631 mmHg 81%
    01:00 -6°C° 0 mm 1 mps 631 mmHg 82%
    02:00 -6°C° 0 mm 1 mps 630 mmHg 82%
    03:00 -7°C° 0 mm 1 mps 630 mmHg 82%
    04:00 -7°C° 0 mm 1 mps 630 mmHg 81%
    05:00 -7°C° 0 mm 1 mps 630 mmHg 80%
    06:00 -8°C° 0 mm 1 mps 629 mmHg 80%
    07:00 -7°C° 0 mm 1 mps 629 mmHg 78%
    08:00 -6°C° 0 mm 1 mps 629 mmHg 77%
    09:00 -6°C° 0 mm 2 mps 630 mmHg 75%
    10:00 -5°C° 0 mm 2 mps 629 mmHg 73%
    11:00 -4°C° 0 mm 2 mps 629 mmHg 71%
    12:00 -4°C° 0 mm 3 mps 629 mmHg 69%
    13:00 -2°C° 0.1 mm 3 mps 628 mmHg 69%
    14:00 -2°C° 0.1 mm 3 mps 628 mmHg 70%
    15:00 -1°C° 0.1 mm 3 mps 628 mmHg 71%
    16:00 -2°C° 0.2 mm 3 mps 628 mmHg 74%
    17:00 -3°C° 0.2 mm 2 mps 628 mmHg 77%
    18:00 -4°C° 0.2 mm 2 mps 628 mmHg 80%
    19:00 -4°C° 0.2 mm 2 mps 628 mmHg 81%
    20:00 -4°C° 0.2 mm 2 mps 628 mmHg 81%
    21:00 -4°C° 0.2 mm 2 mps 628 mmHg 82%
    22:00 -4°C° 0.3 mm 2 mps 628 mmHg 83%
    23:00 -4°C° 0.3 mm 2 mps 628 mmHg 84%
    Show more